Flag for Mexico Weather past 2 weeks in Merida, Yucatán, Mexico

Now
72 °F

Sleet. Partly sunny.


Feels Like: 65 °F
Forecast: 73 / 89 °F
Wind: 18 mph from North

Location: Aerop. Internacional Merida - Yuc

Current Time: Sep 22, 2014 at 7:27:19 PM

Latest Report: Sep 22, 2014 at 4:29 PM


Visibility: 3 mi

Pressure: 29.88 "Hg

Humidity: 100%

Dew point: 72 °F

Location of MeridaLocation

Historic Weather in Merida — Graph

°F

Merida temperature yesterday

Maximum temperature yesterday: 91 °F (at 1:44 PM)
Minimum temperature yesterday: 73 °F (at 9:50 PM)
Average temperature yesterday: 79 °F

Past Weeks' High & Low Weather Summary

 TemperatureHumidityPressure
High93 °F (Sep 17, 3:50 PM)100% (Sep 7, 10:41 PM)30.05 "Hg (Sep 7, 10:41 PM)
Low34 °F (Sep 20, 8:12 AM)36% (Sep 17, 3:50 PM)29.80 "Hg (Sep 19, 4:51 PM)
Average80 °F80%29.92 "Hg
* Reported Sep 7 4:46 PM — Sep 22 4:29 PM, Merida, Weather by CustomWeather, © 2014

Note: Actual official high and low records may vary slightly from our data, if they occured in-between our weather recording intervals... More about our weather records

Advertising

Merida weather history for previous 24 hours

 ConditionsComfort  
Time TempWeatherWind HumidityBarometerVisibility
4:29 PM
Sep 22
72 °FSleet. Partly sunny.18 mph100%29.88 "Hg3 mi
4:02 PM82 °FThunderstorms. Partly sunny.14 mph66%29.87 "Hg5 mi
1:45 PM91 °FPartly sunny.7 mph59%29.91 "Hg7 mi
12:43 PM90 °FPartly sunny.No wind59%29.94 "Hg7 mi
11:42 AM86 °FPartly sunny.5 mph66%29.97 "Hg7 mi
10:42 AM86 °FPartly sunny.8 mph70%29.97 "Hg7 mi
10:14 AM84 °FPartly sunny.6 mph74%29.97 "Hg7 mi
9:50 AM84 °FPartly sunny.5 mph79%29.93 "Hg7 mi
8:49 AM79 °FScattered clouds.5 mph84%29.97 "Hg7 mi
7:46 AM75 °FPassing clouds.5 mph100%29.96 "Hg7 mi
6:49 AM73 °FPassing clouds.No wind100%29.93 "Hg7 mi
3:46 AM73 °FPassing clouds.No wind100%29.93 "Hg7 mi
2:45 AM75 °FClear.No wind100%29.93 "Hg7 mi
1:45 AM75 °FPassing clouds.No wind100%29.94 "Hg7 mi
12:50 AM75 °FPassing clouds.3 mph100%29.93 "Hg7 mi
11:47 PM
Sep 21
73 °FPassing clouds.5 mph100%29.92 "Hg7 mi
10:44 PM73 °FOvercast.No wind100%29.90 "Hg7 mi
9:50 PM73 °FOvercast.5 mph100%29.93 "Hg6 mi
7:44 PM75 °FThunderstorms. Overcast.5 mph100%29.96 "Hg5 mi
7:16 PM75 °FLight rain. Mostly cloudy.8 mph100%29.95 "Hg5 mi
Weather by CustomWeather, © 2014

See weather overviewHow to use our weather pages